Total_Precipitation_Accumulation
0.56 0.64 0.54 0.36 0.27 0.26 0.28 0.26 0.26 0.32 0.41 0.47 0.43 0.38 0.35 0.38 0.45 0.53 0.60 0.64 0.66 0.60 0.57 0.50 0.41 0.34 0.29 0.20 0.16 0.15 0.14 0.13 0.12 0.13 0.13 0.12 0.15 0.21 0.22 0.20 0.18 0.12 0.11
1.01 1.10 0.95 0.57 0.34 0.25 0.19 0.17 0.22 0.32 0.41 0.44 0.39 0.34 0.33 0.38 0.45 0.53 0.62 0.69 0.66 0.59 0.50 0.38 0.26 0.18 0.12 0.07 0.06 0.04 0.05 0.08 0.10 0.11 0.13 0.13 0.15 0.18 0.20 0.21 0.18 0.18 0.22
0.92 1.03 0.82 0.44 0.24 0.16 0.13 0.17 0.28 0.37 0.40 0.39 0.38 0.40 0.49 0.55 0.61 0.67 0.63 0.59 0.51 0.40 0.32 0.24 0.12 0.05 0.04 0.02 0.01 0.02 0.02 0.04 0.13 0.17 0.19 0.18 0.17 0.15 0.13 0.18 0.23 0.34 0.40
0.51 0.65 0.52 0.28 0.17 0.12 0.12 0.16 0.20 0.20 0.23 0.31 0.42 0.56 0.64 0.66 0.65 0.64 0.53 0.41 0.32 0.22 0.15 0.08 0.03 0.01 0.01 0.01 0.01 0.01 0.01 0.05 0.10 0.14 0.15 0.13 0.13 0.10 0.10 0.14 0.22 0.37 0.47
0.39 0.50 0.39 0.22 0.13 0.06 0.03 0.04 0.07 0.13 0.18 0.27 0.39 0.46 0.43 0.42 0.47 0.43 0.32 0.23 0.15 0.09 0.05 0.01 0.00 0.00 0.00 0.00 0.00 0.01 0.01 0.02 0.02 0.02 0.02 0.03 0.04 0.04 0.04 0.09 0.18 0.35 0.46
0.34 0.45 0.39 0.27 0.14 0.05 0.02 0.01 0.04 0.08 0.10 0.16 0.21 0.20 0.16 0.14 0.16 0.15 0.10 0.06 0.04 0.02 0.00 0.00 0.00 0.00 0.00 0.00 0.00 0.00 0.00 0.01 0.01 0.02 0.01 0.00 0.01 0.01 0.04 0.11 0.20 0.36 0.53
0.33 0.41 0.39 0.32 0.19 0.11 0.04 0.03 0.04 0.04 0.05 0.07 0.05 0.04 0.05 0.04 0.03 0.02 0.01 0.01 0.01 0.00 0.00 0.00 0.00 0.00 0.00 0.00 0.00 0.00 0.00 0.00 0.00 0.01 0.01 0.01 0.00 0.00 0.03 0.10 0.22 0.49 0.76
0.26 0.35 0.39 0.33 0.26 0.23 0.12 0.07 0.04 0.04 0.06 0.09 0.05 0.02 0.01 0.01 0.01 0.00 0.00 0.00 0.00 0.00 0.00 0.00 0.00 0.00 0.00 0.00 0.00 0.00 0.00 0.00 0.00 0.00 0.01 0.00 0.00 0.01 0.02 0.05 0.12 0.28 0.51
0.18 0.29 0.34 0.29 0.24 0.21 0.16 0.10 0.07 0.09 0.08 0.07 0.05 0.02 0.00 0.00 0.00 0.00 0.00 0.01 0.00 0.00 0.00 0.00 0.00 0.00 0.00 0.00 0.00 0.00 0.00 0.00 0.00 0.00 0.00 0.00 0.00 0.00 0.01 0.03 0.05 0.08 0.15
0.18 0.24 0.32 0.33 0.31 0.27 0.21 0.11 0.08 0.11 0.10 0.06 0.03 0.02 0.00 0.00 0.00 0.00 0.00 0.01 0.02 0.01 0.00 0.00 0.00 0.00 0.00 0.00 0.00 0.01 0.00 0.00 0.00 0.00 0.00 0.00 0.00 0.00 0.00 0.02 0.07 0.09 0.11
0.18 0.20 0.26 0.34 0.34 0.32 0.27 0.17 0.10 0.09 0.09 0.09 0.06 0.05 0.03 0.00 0.00 0.00 0.00 0.02 0.02 0.01 0.00 0.00 0.00 0.00 0.00 0.00 0.00 0.00 0.00 0.00 0.00 0.00 0.00 0.00 0.00 0.00 0.00 0.00 0.04 0.10 0.11
0.22 0.24 0.28 0.31 0.21 0.19 0.25 0.23 0.17 0.12 0.12 0.11 0.08 0.05 0.02 0.00 0.00 0.00 0.00 0.00 0.00 0.00 0.00 0.00 0.00 0.00 0.00 0.00 0.00 0.00 0.00 0.00 0.00 0.00 0.00 0.00 0.00 0.00 0.00 0.00 0.02 0.03 0.08
0.28 0.29 0.30 0.30 0.27 0.28 0.25 0.22 0.18 0.13 0.11 0.08 0.05 0.03 0.01 0.00 0.00 0.00 0.00 0.00 0.00 0.00 0.00 0.00 0.00 0.00 0.00 0.00 0.00 0.00 0.00 0.00 0.00 0.00 0.00 0.00 0.00 0.00 0.00 0.00 0.01 0.02 0.02
0.29 0.29 0.29 0.30 0.29 0.27 0.25 0.21 0.17 0.12 0.10 0.08 0.06 0.03 0.02 0.00 0.00 0.00 0.00 0.00 0.00 0.00 0.00 0.00 0.00 0.00 0.00 0.00 0.00 0.00 0.00 0.00 0.00 0.00 0.00 0.00 0.00 0.00 0.00 0.00 0.00 0.00 0.01
0.33 0.32 0.29 0.27 0.26 0.23 0.20 0.20 0.21 0.20 0.13 0.12 0.09 0.05 0.03 0.01 0.00 0.00 0.00 0.00 0.00 0.00 0.00 0.00 0.00 0.00 0.00 0.00 0.00 0.00 0.00 0.00 0.00 0.00 0.00 0.00 0.00 0.00 0.00 0.00 0.00 0.00 0.00
0.40 0.35 0.29 0.24 0.23 0.19 0.16 0.09 0.06 0.08 0.03 0.03 0.04 0.03 0.01 0.00 0.00 0.00 0.00 0.00 0.00 0.00 0.00 0.00 0.00 0.00 0.00 0.00 0.00 0.00 0.00 0.00 0.00 0.00 0.00 0.00 0.00 0.00 0.00 0.00 0.00 0.00 0.00
0.47 0.42 0.34 0.25 0.20 0.14 0.10 0.08 0.05 0.02 0.01 0.01 0.01 0.00 0.00 0.00 0.00 0.00 0.00 0.00 0.00 0.00 0.00 0.00 0.00 0.00 0.00 0.00 0.00 0.00 0.00 0.00 0.00 0.00 0.00 0.00 0.00 0.00 0.00 0.00 0.00 0.00 0.00
0.52 0.45 0.39 0.31 0.21 0.13 0.07 0.06 0.08 0.06 0.02 0.01 0.00 0.00 0.00 0.00 0.00 0.00 0.00 0.00 0.00 0.00 0.00 0.00 0.00 0.00 0.00 0.00 0.00 0.00 0.00 0.00 0.00 0.00 0.00 0.00 0.00 0.00 0.00 0.00 0.00 0.00 0.00
0.47 0.43 0.36 0.32 0.25 0.16 0.09 0.05 0.06 0.07 0.05 0.02 0.00 0.00 0.00 0.00 0.00 0.00 0.00 0.00 0.00 0.00 0.00 0.00 0.00 0.00 0.00 0.00 0.00 0.00 0.00 0.00 0.00 0.00 0.00 0.00 0.00 0.00 0.00 0.00 0.00 0.00 0.00
0.46 0.37 0.34 0.31 0.27 0.20 0.12 0.06 0.04 0.05 0.05 0.03 0.01 0.00 0.00 0.00 0.00 0.00 0.00 0.00 0.00 0.00 0.00 0.00 0.00 0.00 0.00 0.00 0.00 0.00 0.00 0.00 0.00 0.00 0.00 0.00 0.00 0.00 0.00 0.00 0.00 0.00 0.00
0.47 0.36 0.30 0.27 0.25 0.20 0.13 0.06 0.03 0.02 0.02 0.02 0.01 0.00 0.00 0.00 0.00 0.00 0.00 0.00 0.00 0.00 0.00 0.00 0.00 0.00 0.00 0.00 0.00 0.00 0.00 0.00 0.00 0.00 0.00 0.00 0.00 0.00 0.00 0.00 0.00 0.00 0.00
0.50 0.40 0.29 0.22 0.20 0.17 0.13 0.08 0.03 0.02 0.01 0.01 0.01 0.00 0.00 0.00 0.00 0.00 0.00 0.00 0.00 0.00 0.00 0.00 0.00 0.00 0.00 0.00 0.00 0.00 0.00 0.00 0.00 0.00 0.00 0.00 0.00 0.00 0.00 0.00 0.00 0.00 0.00
0.54 0.44 0.31 0.22 0.18 0.15 0.11 0.07 0.04 0.02 0.01 0.01 0.00 0.00 0.00 0.00 0.00 0.00 0.00 0.00 0.00 0.00 0.00 0.00 0.00 0.00 0.00 0.00 0.00 0.00 0.00 0.00 0.00 0.00 0.00 0.00 0.00 0.00 0.00 0.00 0.00 0.00 0.00
0.52 0.46 0.31 0.21 0.16 0.12 0.08 0.05 0.03 0.02 0.01 0.01 0.00 0.00 0.00 0.00 0.00 0.00 0.00 0.00 0.00 0.00 0.00 0.00 0.00 0.00 0.00 0.00 0.00 0.00 0.00 0.00 0.00 0.00 0.00 0.00 0.00 0.00 0.00 0.00 0.00 0.00 0.00
0.48 0.46 0.32 0.19 0.12 0.08 0.06 0.04 0.03 0.02 0.02 0.01 0.00 0.00 0.00 0.00 0.00 0.00 0.00 0.00 0.00 0.00 0.00 0.00 0.00 0.00 0.00 0.00 0.00 0.00 0.00 0.00 0.00 0.00 0.00 0.00 0.00 0.00 0.00 0.00 0.00 0.00 0.00
0.43 0.41 0.30 0.16 0.07 0.04 0.03 0.03 0.02 0.02 0.01 0.01 0.00 0.00 0.00 0.00 0.00 0.00 0.00 0.00 0.00 0.00 0.00 0.00 0.00 0.00 0.00 0.00 0.00 0.00 0.00 0.00 0.00 0.00 0.00 0.00 0.00 0.00 0.00 0.00 0.00 0.00 0.00